Location: Kerguer�zec
(48.4509°N, 4.7600°W)
Time: 01:01:23
(UTC+00:00)

ISS - Pass Details

Date: 01 March 2021
Orbit: 418 x 422 km, 51.6° (Epoch: 10 April)

Event Time Altitude Azimuth Distance (km) Brightness Sun altitude
Exits shadow 05:21:51 41° 304° (NW) 621 -3.3 -17.1°
Maximum altitude 05:22:37 52° 350° (N) 528 -3.3 -17.0°
Drops below altitude 10° 05:25:55 10° 69° (ENE) 1,502 0.3 -16.4°
Sets 05:27:56 0° 74° (ENE) 2,318 1.7 -16.1°
